Regional Weather Roundup
Issued by NWS

Home | Current Version | Previous Version | Graphics & Text | Print | Product List | Glossary On
Versions: 1 2 3 4 5 6 7 8 9 10 11 12 13 14 15 16 17 18 19 20 21 22 23 24 25 26 27 28 29 30 31 32 33 34 35 36 37 38 39 40 41 42 43 44 45 46 47 48 49 50
000
ASUS43 KLOT 261208
RWRIL

ILLINOIS REGIONAL WEATHER ROUNDUP
NATIONAL WEATHER SERVICE CHICAGO/ROMEOVILLE IL
700 AM CDT THU MAY 26 2016

NOTE: "FAIR" INDICATES FEW OR NO CLOUDS BELOW 12,000 FEET WITH NO
SIGNIFICANT WEATHER AND/OR OBSTRUCTIONS TO VISIBILITY.

* THESE STATIONS ARE NOT UNDER NWS QUALITY CONTROL. THEY ALSO MAY NOT
  REPORT WEATHER SUCH AS PRECIPITATION OR FOG.

ILZ001-002-007-009-015-016-024-261300-
NORTHWEST ILLINOIS

CITY           SKY/WX    TMP DP  RH WIND       PRES   REMARKS
MOLINE         LGT RAIN  68  60  75 NW3       29.95R
6HR MIN TEMP:  67; 6HR MAX TEMP:  76; 6HR PCP: TRACE;

STERLING*      LGT RAIN  70  65  84 W6        29.90F
SAVANNA*       RAIN      66  59  77 NW20G29   29.92R
$$

ILZ003-004-008-010-011-017-018-261300-
NORTH CENTRAL ILLINOIS

CITY           SKY/WX    TMP DP  RH WIND       PRES   REMARKS
ROCKFORD       CLOUDY    69  65  86 S8        29.91F
6HR MIN TEMP:  65; 6HR MAX TEMP:  69;

FREEPORT*      PTSUNNY   69  64  84 SW12      29.91S
ROCHELLE*      CLOUDY    67  65  94 S12       29.90F
DE KALB*       PTSUNNY   67  66  96 S10       29.92S FOG
$$

ILZ005-006-012>014-019>023-261300-
NORTHEAST ILLINOIS

CITY           SKY/WX    TMP DP  RH WIND       PRES   REMARKS
CHICAGO-OHARE  CLOUDY    69  66  90 S10       29.92R
6HR MIN TEMP:  62; 6HR MAX TEMP:  69;

CHICAGO-MIDWAY CLOUDY    70  65  84 SW9       29.93R
6HR MIN TEMP:  65; 6HR MAX TEMP:  70;

AURORA         CLOUDY    69  66  90 S6        29.93R FOG
6HR MIN TEMP:  65; 6HR MAX TEMP:  69;

LANSING*       MOSUNNY   68  65  90 S10       29.94F
JOLIET*        PTSUNNY   71  68  88 S7        29.93S
WAUKEGAN       CLOUDY    67  66  97 SW9       29.90R FOG
6HR MIN TEMP:  63; 6HR MAX TEMP:  67;

DUPAGE AIRPORT PTSUNNY   68  65  90 S7        29.92R
6HR MIN TEMP:  64; 6HR MAX TEMP:  69;

KANKAKEE*      CLOUDY   N/A N/A N/A S9        29.96R
WHEELING       PTSUNNY   69  66  90 S7        29.93R
6HR MIN TEMP:  62; 6HR MAX TEMP:  69;

MORRIS*        CLOUDY    70  65  84 SW8       29.92R
ROMEOVILLE*    CLOUDY    70  65  84 SW10      29.93R
NORTHERLY ISL    N/A     69  64  84 S6          N/A
NORTHERLY ISL    N/A     69  64  84 S6          N/A
$$

LMZ740>746-261300-
SOUTHERN LAKE MICHIGAN

STATION/POSITION SKY/WX   TEMP    WIND        PRES    VSBY  WAVE
                          AIR SEA DIR/SP/G                  HT/PER
                          (F)     (DEG/KT/KT) (MB)    (MI)  (FT/S)
SOUTHERN BUOY              54 49  170/ 14/ 16 1012.8R         2/ 4
WILMETTE HARBOR            63 55  230/  6/  6   N/A           1/ 3
HARRISON CRIB              68     200/ 17/ 19   N/A
BURNHAM HARBOR             70     200/  6/ 11   N/A
CALUMET HARBOR             68     180/  7/ 11 1013.1R
BURNS HARBOR               67     190/ 10/ 18 1014.2R
MICHIGAN CITY              67     150/ 12/ 14   N/A
MICHIGAN CITY 6N           64 58  200/  8/ 10   N/A           1
ST. JOSEPH                 63 59  180/  8/ 10   N/A           1
$$

ILZ025>027-034>036-040-047-049-050-058-095>099-261300-
WEST-CENTRAL ILLINOIS

CITY           SKY/WX    TMP DP  RH WIND       PRES   REMARKS
QUINCY         CLOUDY    65  63  93 SE20      29.93F
GALESBURG*     CLOUDY    67  59  76 CALM      29.92R
MACOMB*        LGT RAIN  64  64  99 S10       29.95R
JACKSONVILLE*  TSTM      67  64  87 NE5       29.97S
PITTSFIELD*    CLOUDY    67  65  91 CALM      29.99R
$$

ILZ028>032-037-038-041>044-048-051>054-059>061-261300-
CENTRAL ILLINOIS

CITY           SKY/WX    TMP DP  RH WIND       PRES   REMARKS
PONTIAC        CLOUDY    70  67  92 S6        29.96R
BLOOMINGTON    CLOUDY    68  68 100 S9        29.97R
DECATUR        CLOUDY    69  66  90 S10       29.95R
PEORIA         TSTM      67  63  87 SW7       29.98R
6HR MIN TEMP:  67; 6HR MAX TEMP:  70; 6HR PCP:  0.03;

LACON*         TSTM      68  63  83 W8G20     29.95R
LINCOLN*       TSTM      66  66  97 NW8G24    29.98R
SPRINGFIELD    TSTM      67  65  93 W18G33    30.04R FOG
6HR MIN TEMP:  69; 6HR MAX TEMP:  72; 6HR PCP: TRACE;

TAYLORVILLE    CLOUDY    68  66  93 S10       29.94R
6HR MIN TEMP:  68; 6HR MAX TEMP:  69;

$$

ILZ033-039-045-046-055>057-062-063-261300-
EAST-CENTRAL ILLINOIS

CITY           SKY/WX    TMP DP  RH WIND       PRES   REMARKS
CHAMPAIGN      CLOUDY    69  66  90 S12       29.97R
RANTOUL*       CLOUDY    70  67  91 S9        29.97R FOG
MATTOON        MOSUNNY   68  64  87 S9        29.97S
PARIS*         MOSUNNY   69  66  90 S6        29.99F
$$

ILZ079-100>102-261300-
SOUTHWEST ILLINOIS

CITY           SKY/WX    TMP DP  RH WIND       PRES   REMARKS
ALTON          PTSUNNY   68  66  94 SE10      29.93S
BELLEVILLE     CLOUDY    69  69 100 VRB2      29.94S
CAHOKIA*       MOSUNNY   71  66  84 S7        29.93S
SPARTA*        CLOUDY    69  66  91 S10G20    29.97S
$$

ILZ064>066-069>071-074>076-080>082-084>086-088>090-092>094-261300-
SOUTH-CENTRAL ILLINOIS

CITY           SKY/WX    TMP DP  RH WIND       PRES   REMARKS
CARBONDALE     MOSUNNY   69  62  78 S10       29.99R
6HR MIN TEMP:  67; 6HR MAX TEMP:  69;

CAIRO*         MOSUNNY   69  64  86 S7        30.02S
EFFINGHAM*     MOSUNNY   68  67  98 SE6       29.99S
MARION         PTSUNNY   70  64  83 S17       30.00S
MT. VERNON     MOSUNNY   68  61  77 S8        29.98F
CENTRALIA*     SUNNY     70  66  89 S9        29.96F
SALEM*         PTSUNNY   70  65  84 S6        29.97F
METROPOLIS*    MOSUNNY   70  66  88 S6        30.04R
$$

ILZ067-068-072-073-078-083-087-091-261300-
SOUTHEAST ILLINOIS

CITY           SKY/WX    TMP DP  RH WIND       PRES   REMARKS
LAWRENCEVILLE  PTSUNNY   68  64  87 S9        30.02S
FLORA*         MOSUNNY   71  65  82 S8        29.99S
FAIRFIELD*     MOSUNNY   69  64  82 S5        29.98F
HARRISBURG*    SUNNY     69  64  83 SW3       30.01S
ROBINSON*      PTSUNNY   67  64  93 S5        30.02S
CARMI*         SUNNY     67  64  90 S7        30.00F
$$

ABBREVIATIONS USED IN REMARKS
   TC - TEMPERATURE IN CELSIUS
  WCI - WIND CHILL INDEX
   HX - HEAT INDEX
  VSB - VISIBILITY
$$





USA.gov is the U.S. government's official web portal to all federal, state and local government web resources and services.